FW7603 Weather Reports


Display with metric or nautical units.
time (UTC)temp
F
wind
direction
speed
MPH
gust
MPH
rain 1hr
in
rain 24hr
in
rain mn
in
humidity
%
barometer
mb
20260506091340 48 172 0.0 1.0 0.00 0.00 0.00 99 1022.9
20260506090837 48 173 1.0 2.0 0.00 0.00 0.00 99 1022.9
20260506090335 48 203 0.0 2.0 0.00 0.00 0.00 99 1022.6
20260506085831 48 209 1.0 1.0 0.00 0.00 0.00 99 1022.7
20260506085327 48 188 0.0 0.0 0.00 0.00 0.00 99 1022.6
20260506084824 48 195 0.0 1.0 0.00 0.00 0.00 99 1022.6
20260506084320 48 186 0.0 2.0 0.00 0.00 0.00 99 1022.6
20260506083817 47 198 0.0 2.0 0.00 0.00 0.00 99 1022.7
20260506083314 47 188 0.0 2.0 0.00 0.00 0.00 99 1022.6
20260506082812 48 180 1.0 1.0 0.00 0.00 0.00 99 1022.7
20260506082308 47 180 1.0 2.0 0.00 0.00 0.00 99 1022.9
20260506081805 47 246 0.0 2.0 0.00 0.00 0.00 99 1022.7
20260506081303 47 169 1.0 2.0 0.00 0.00 0.00 99 1022.9
20260506080800 48 176 2.0 2.0 0.00 0.00 0.00 99 1022.7
20260506080256 48 203 1.0 2.0 0.00 0.00 0.00 99 1022.6
20260506073240 48 180 0.0 2.0 0.00 0.00 0.00 99 1022.6
20260506072737 48 172 0.0 2.0 0.00 0.00 0.00 99 1022.5
20260506072234 48 198 0.0 1.0 0.00 0.00 0.00 99 1022.5
20260506071732 48 188 0.0 1.0 0.00 0.00 0.00 99 1022.5
20260506071230 48 180 0.0 2.0 0.00 0.00 0.00 99 1022.4
20260506070727 48 180 0.0 1.0 0.00 0.00 0.00 99 1022.6
20260506070224 48 203 0.0 1.0 0.00 0.00 0.00 99 1022.5
20260506062201 48 240 1.0 1.0 0.00 0.08 0.08 99 1022.0
20260506061656 48 209 0.0 2.0 0.00 0.08 0.08 99 1022.1
20260506061154 48 195 0.0 2.0 0.00 0.08 0.08 99 1022.0
20260506060653 48 240 0.0 0.0 0.00 0.08 0.08 98 1021.9
20260506060149 47 240 0.0 0.0 0.00 0.08 0.08 98 1022.0
20260506051121 48 203 0.0 0.0 0.00 0.08 0.08 99 1021.4
20260506050620 48 203 0.0 0.0 0.00 0.08 0.08 99 1021.5
20260506050116 48 203 0.0 0.0 0.00 0.08 0.08 99 1021.5
20260506045109 48 203 0.0 0.0 0.00 0.08 0.08 99 1021.8
20260506044607 48 203 0.0 0.0 0.00 0.08 0.08 99 1021.3
20260506044104 48 203 0.0 1.0 0.00 0.08 0.08 99 1021.6
20260506043601 48 339 2.0 2.0 0.00 0.08 0.08 99 1021.3
20260506043100 48 352 0.0 0.0 0.00 0.08 0.08 99 1021.3
20260506042558 48 340 0.0 1.0 0.00 0.08 0.08 99 1021.5
20260506042056 48 0 0.0 0.0 0.00 0.08 0.08 99 1021.4
20260506041554 48 352 0.0 0.0 0.00 0.08 0.08 99 1021.2
20260506041051 48 331 0.0 0.0 0.00 0.08 0.08 99 1021.2
20260506040549 48 353 0.0 1.0 0.00 0.08 0.08 99 1021.0
20260506040044 48 0 0.0 0.0 0.00 0.08 0.08 99 1020.9
20260506035541 48 354 0.0 0.0 0.00 0.08 0.08 99 1021.0
20260506035038 48 346 0.0 0.0 0.00 0.08 0.08 99 1021.0
20260506034535 48 8 0.0 0.0 0.00 0.08 0.08 99 1021.0
20260506034032 48 352 0.0 1.0 0.00 0.08 0.08 99 1020.8
20260506033530 48 352 0.0 0.0 0.00 0.08 0.08 99 1021.2
20260506033026 48 352 0.0 1.0 0.00 0.08 0.08 99 1020.6
20260506032524 48 209 0.0 0.0 0.00 0.08 0.08 99 1020.5
20260506032020 48 209 0.0 0.0 0.00 0.08 0.08 99 1020.9
20260506031518 48 192 2.0 3.0 0.00 0.08 0.08 99 1020.4
20260506031015 48 220 0.0 2.0 0.00 0.08 0.08 99 1020.2
20260506030513 47 180 0.0 2.0 0.00 0.08 0.08 99 1020.3
20260506030010 48 192 2.0 3.0 0.00 0.08 0.08 99 1020.2
20260506025507 47 210 2.0 3.0 0.00 0.08 0.08 99 1020.1
20260506025003 48 200 0.0 3.0 0.00 0.08 0.08 99 1020.2
20260506024500 48 200 1.0 3.0 0.00 0.08 0.08 99 1020.2
20260506023956 47 200 1.0 2.0 0.00 0.08 0.08 99 1020.1
20260506023453 48 203 1.0 3.0 0.00 0.08 0.08 99 1020.2
20260506022949 48 213 2.0 3.0 0.00 0.08 0.08 99 1019.9
20260506022447 48 197 3.0 3.0 0.00 0.08 0.08 99 1019.9
20260506021945 48 174 3.0 3.0 0.00 0.08 0.08 99 1019.9
20260506021442 48 188 0.0 3.0 0.00 0.08 0.08 99 1020.1
20260506020939 48 178 3.0 4.0 0.00 0.08 0.08 99 1019.8
20260506020437 47 185 3.0 4.0 0.00 0.08 0.08 99 1019.7
20260506015934 48 174 3.0 4.0 0.00 0.08 0.08 99 1019.8
20260506015432 48 176 2.0 4.0 0.00 0.08 0.08 99 1019.9
20260506014928 48 200 1.0 2.0 0.00 0.08 0.08 99 1019.7
20260506014425 48 180 0.0 3.0 0.00 0.08 0.08 99 1019.9
20260506013921 48 168 2.0 2.0 0.00 0.08 0.08 99 1020.0
20260506013420 48 185 1.0 3.0 0.00 0.08 0.08 99 1020.2
20260506012915 48 194 1.0 3.0 0.00 0.08 0.08 99 1020.1
20260506012412 48 168 2.0 3.0 0.00 0.08 0.08 99 1019.9
20260506011909 48 180 1.0 3.0 0.00 0.08 0.08 99 1019.8
20260506011406 48 180 2.0 3.0 0.00 0.08 0.08 99 1019.9
20260506010903 48 194 1.0 3.0 0.00 0.08 0.08 99 1019.9
20260506010402 48 180 1.0 2.0 0.00 0.08 0.08 99 1019.9
20260506005858 48 203 0.0 4.0 0.00 0.08 0.08 99 1019.5
20260506005355 48 199 4.0 4.0 0.00 0.08 0.08 99 1019.8
20260506004851 48 173 2.0 4.0 0.00 0.08 0.08 99 1019.4
20260506004349 48 170 2.0 3.0 0.00 0.08 0.08 99 1019.7
20260506003845 48 165 0.0 2.0 0.00 0.08 0.08 99 1019.4
20260506003341 48 176 2.0 3.0 0.00 0.08 0.08 99 1019.4
20260506002838 48 197 0.0 3.0 0.00 0.08 0.08 99 1019.5
20260506002334 48 221 2.0 3.0 0.00 0.08 0.08 99 1019.5
20260506001829 48 169 1.0 3.0 0.00 0.08 0.08 99 1019.4
20260506001327 48 200 1.0 1.0 0.00 0.08 0.08 99 1019.8
20260506000824 48 209 0.0 2.0 0.00 0.08 0.08 99 1019.4
20260506000323 48 203 0.0 2.0 0.00 0.08 0.08 99 1019.3
20260505235818 48 191 1.0 1.0 0.02 0.08 0.08 99 1019.4
20260505235316 48 180 2.0 2.0 0.02 0.08 0.08 99 1019.4
20260505234813 48 166 1.0 2.0 0.00 0.08 0.08 99 1019.4
20260505234311 48 270 0.0 1.0 0.00 0.08 0.08 99 1019.4
20260505233807 48 212 2.0 3.0 0.00 0.08 0.08 99 1019.2
20260505233305 48 180 1.0 1.0 0.00 0.08 0.08 99 1019.3
20260505232802 48 194 0.0 2.0 0.02 0.08 0.08 99 1019.4
20260505232259 47 176 2.0 3.0 0.02 0.08 0.08 99 1019.2
20260505231755 48 187 0.0 0.0 0.00 0.07 0.07 99 1019.4
20260505231254 48 186 0.0 2.0 0.02 0.07 0.07 99 1019.4
20260505230752 48 212 1.0 3.0 0.02 0.07 0.07 99 1019.2
20260505230249 48 191 3.0 3.0 0.00 0.07 0.07 99 1019.4
20260505225746 47 228 2.0 3.0 0.00 0.07 0.07 99 1019.5
20260505225243 47 168 1.0 4.0 0.00 0.07 0.07 99 1019.3
20260505224737 47 199 0.0 2.0 0.00 0.07 0.07 99 1019.5
20260505224235 47 187 0.0 2.0 0.00 0.07 0.07 99 1019.4
20260505223733 47 203 0.0 3.0 0.00 0.07 0.07 99 1019.5
20260505223229 47 184 2.0 3.0 0.00 0.07 0.07 99 1019.4
20260505222725 47 177 2.0 4.0 0.00 0.07 0.07 99 1019.4
20260505222221 47 157 0.0 3.0 0.00 0.07 0.07 99 1019.7
20260505221719 47 212 4.0 5.0 0.00 0.07 0.07 99 1019.7
20260505221215 47 166 2.0 3.0 0.00 0.07 0.07 99 1019.4
20260505220712 48 222 3.0 3.0 0.00 0.07 0.07 98 1019.5
20260505220210 48 243 1.0 2.0 0.00 0.07 0.07 98 1019.8
20260505215708 48 183 3.0 3.0 0.00 0.07 0.07 98 1019.8
20260505215205 48 162 2.0 3.0 0.00 0.07 0.07 98 1019.7
20260505214703 48 194 3.0 3.0 0.00 0.07 0.07 98 1019.7
20260505214200 48 194 0.0 3.0 0.00 0.07 0.07 98 1019.7
20260505213657 48 203 1.0 3.0 0.00 0.07 0.07 98 1019.8
20260505213154 48 199 3.0 4.0 0.00 0.07 0.07 98 1019.7
20260505212650 47 198 2.0 3.0 0.00 0.07 0.07 98 1019.5
20260505212148 48 185 0.0 2.0 0.00 0.07 0.07 98 1019.8
20260505211644 47 188 0.0 2.0 0.00 0.07 0.07 98 1019.9
20260505211142 47 187 1.0 2.0 0.00 0.07 0.07 98 1019.8
20260505210638 47 180 3.0 3.0 0.00 0.07 0.07 98 1019.4
20260505210135 47 180 2.0 3.0 0.00 0.07 0.07 98 1019.8
20260505205633 47 215 1.0 3.0 0.00 0.07 0.07 98 1019.5
20260505205131 47 213 2.0 2.0 0.00 0.07 0.07 98 1019.4
20260505204627 48 183 3.0 3.0 0.00 0.07 0.07 98 1019.7
20260505204126 48 180 2.0 3.0 0.00 0.07 0.07 98 1019.5
20260505203622 48 206 0.0 2.0 0.00 0.07 0.07 98 1019.5
20260505203119 47 180 0.0 2.0 0.00 0.07 0.07 98 1019.4
20260505202614 48 206 2.0 3.0 0.00 0.07 0.07 98 1019.4
20260505202110 47 201 0.0 2.0 0.00 0.07 0.07 98 1019.5
20260505201607 47 180 2.0 3.0 0.00 0.07 0.07 98 1019.4
20260505201105 47 217 2.0 4.0 0.00 0.07 0.07 98 1019.5
20260505200603 47 270 0.0 1.0 0.00 0.07 0.07 98 1019.4
20260505200100 47 197 2.0 2.0 0.00 0.07 0.07 98 1019.2
20260505195556 47 169 3.0 6.0 0.00 0.07 0.07 97 1019.4
20260505195054 47 188 0.0 4.0 0.00 0.07 0.07 97 1019.4
20260505194550 47 210 2.0 4.0 0.00 0.07 0.07 97 1019.3
20260505194046 48 180 4.0 4.0 0.00 0.07 0.07 97 1019.4
20260505193543 48 180 3.0 3.0 0.00 0.07 0.07 97 1019.4
20260505193040 47 190 2.0 4.0 0.00 0.07 0.07 97 1019.7
20260505192539 47 185 2.0 4.0 0.00 0.07 0.07 97 1019.2
20260505192036 48 177 2.0 3.0 0.00 0.07 0.07 97 1019.3
20260505191534 48 173 2.0 3.0 0.00 0.07 0.07 97 1019.4
20260505191032 48 190 2.0 3.0 0.00 0.07 0.07 97 1019.3
20260505190526 47 206 2.0 4.0 0.00 0.07 0.07 96 1019.4
20260505190023 48 174 3.0 4.0 0.00 0.07 0.07 97 1019.3
20260505185520 47 214 2.0 3.0 0.00 0.07 0.07 97 1019.4
20260505185016 47 209 2.0 3.0 0.00 0.07 0.07 97 1019.1
20260505184513 47 203 1.0 3.0 0.00 0.07 0.07 97 1019.2
20260505184009 46 192 2.0 3.0 0.00 0.07 0.07 97 1019.2
20260505183506 46 196 0.0 3.0 0.00 0.07 0.07 97 1019.3
20260505183003 46 240 1.0 2.0 0.00 0.07 0.07 97 1019.2
20260505182500 46 203 1.0 3.0 0.00 0.07 0.07 97 1019.1
20260505181956 46 195 0.0 3.0 0.00 0.07 0.07 97 1019.2
20260505181453 46 198 0.0 3.0 0.00 0.07 0.07 97 1019.1
20260505180950 46 214 2.0 3.0 0.00 0.07 0.07 97 1019.1
20260505180446 46 220 1.0 2.0 0.00 0.07 0.07 98 1019.1
20260505175943 46 209 4.0 4.0 0.00 0.07 0.07 97 1019.0
20260505175439 47 175 2.0 3.0 0.00 0.07 0.07 97 1018.9
20260505174936 47 188 2.0 2.0 0.00 0.07 0.07 97 1018.9
20260505174434 46 184 0.0 3.0 0.00 0.07 0.07 97 1018.9
20260505173929 47 201 2.0 3.0 0.00 0.07 0.07 97 1018.9
20260505173426 46 208 2.0 3.0 0.00 0.07 0.07 96 1018.7
20260505172923 47 174 1.0 3.0 0.00 0.07 0.07 95 1018.8
20260505172422 47 198 3.0 3.0 0.00 0.07 0.07 95 1018.9
20260505171920 46 204 2.0 3.0 0.00 0.07 0.07 94 1018.5
20260505171418 47 176 0.0 3.0 0.00 0.07 0.07 95 1018.4
20260505170914 47 173 0.0 3.0 0.00 0.07 0.07 95 1018.5
20260505170411 47 205 3.0 3.0 0.00 0.07 0.07 94 1018.5
20260505165906 46 186 3.0 3.0 0.00 0.07 0.07 95 1018.7
20260505165403 46 173 2.0 3.0 0.00 0.07 0.07 94 1018.7
20260505164858 47 180 2.0 2.0 0.00 0.07 0.07 95 1018.4
20260505164355 46 169 3.0 3.0 0.00 0.07 0.07 94 1018.3
20260505163853 46 162 1.0 2.0 0.00 0.07 0.07 94 1018.4
20260505163352 46 180 2.0 2.0 0.00 0.07 0.07 95 1018.8
20260505162850 45 229 1.0 4.0 0.00 0.07 0.07 95 1018.3
20260505162346 45 217 2.0 4.0 0.00 0.07 0.07 96 1018.3
20260505161843 45 175 3.0 4.0 0.00 0.07 0.07 96 1018.5
20260505161340 45 180 2.0 4.0 0.00 0.07 0.07 96 1018.7
20260505160837 46 185 1.0 5.0 0.00 0.07 0.07 97 1018.4
20260505160335 46 210 3.0 4.0 0.00 0.07 0.07 96 1018.2
20260505153314 46 188 3.0 5.0 0.00 0.07 0.07 99 1018.1
20260505152811 45 163 2.0 4.0 0.00 0.07 0.07 99 1018.1
20260505152308 44 170 2.0 3.0 0.00 0.07 0.07 99 1018.1
20260505151802 44 203 4.0 5.0 0.00 0.07 0.07 99 1018.2
20260505151259 44 151 1.0 3.0 0.00 0.07 0.07 99 1018.3
20260505150756 44 162 1.0 2.0 0.00 0.07 0.07 99 1018.0
20260505150253 44 170 0.0 2.0 0.00 0.07 0.07 99 1018.0
20260505140223 42 173 0.0 0.0 0.00 0.07 0.07 99 1017.7
20260505130147 42 187 0.0 1.0 0.00 0.07 0.07 99 1017.6
20260505124637 42 186 0.0 0.0 0.00 0.07 0.07 99 1017.6
20260505124133 42 184 0.0 2.0 0.00 0.07 0.07 99 1017.4
20260505123629 42 203 0.0 1.0 0.00 0.07 0.07 99 1017.4
20260505123126 42 203 0.0 0.0 0.00 0.07 0.07 99 1017.7
20260505122623 42 180 0.0 1.0 0.00 0.07 0.07 99 1017.2
20260505122120 42 180 1.0 1.0 0.00 0.07 0.07 99 1017.4
20260505121617 42 187 0.0 1.0 0.00 0.07 0.07 99 1017.3
20260505121114 42 337 0.0 0.0 0.00 0.07 0.07 99 1017.3
20260505120610 41 337 0.0 0.0 0.00 0.07 0.07 99 1017.4
20260505120106 41 337 0.0 0.0 0.00 0.07 0.07 99 1017.3
20260505115600 41 337 0.0 0.0 0.00 0.07 0.07 99 1017.3
20260505115058 41 337 0.0 1.0 0.00 0.07 0.07 99 1017.6
20260505114555 41 345 0.0 0.0 0.00 0.07 0.07 99 1017.4
20260505114051 41 0 0.0 1.0 0.00 0.07 0.07 99 1017.3
20260505113547 41 337 0.0 0.0 0.00 0.07 0.07 99 1017.4
20260505113044 41 346 0.0 0.0 0.00 0.07 0.07 99 1017.4
20260505112540 41 337 0.0 0.0 0.00 0.07 0.07 99 1017.3
20260505112038 42 353 0.0 0.0 0.00 0.07 0.07 99 1017.6
20260505111532 42 353 0.0 0.0 0.00 0.07 0.07 99 1017.6
20260505111029 42 345 0.0 0.0 0.00 0.07 0.07 99 1017.6
20260505110525 42 345 0.0 0.0 0.00 0.07 0.07 99 1017.4
20260505101958 43 180 0.0 0.0 0.00 0.07 0.07 99 1017.4
20260505101455 42 180 0.0 0.0 0.00 0.07 0.07 99 1017.3
20260505100952 43 165 0.0 0.0 0.00 0.07 0.07 99 1017.8
20260505100449 43 165 0.0 0.0 0.00 0.07 0.07 99 1017.8
20260505095945 43 165 0.0 0.0 0.00 0.07 0.07 99 1017.7
20260505095442 43 180 0.0 0.0 0.00 0.07 0.07 99 1018.1
20260505094938 43 180 0.0 1.0 0.00 0.07 0.07 99 1017.6
20260505094435 42 180 1.0 2.0 0.00 0.07 0.07 99 1017.4
20260505093931 43 180 1.0 2.0 0.00 0.07 0.07 99 1017.9
20260505093428 43 180 0.0 1.0 0.00 0.07 0.07 99 1018.1
20260505092925 42 157 0.0 1.0 0.00 0.07 0.07 99 1017.9
20260505092423 42 173 1.0 2.0 0.02 0.07 0.07 99 1018.1
20260505091920 43 187 0.0 1.0 0.02 0.07 0.07 99 1018.0